GW0996 Weather Reports


time (UTC)temp
F
wind
direction
speed
knots
gust
knots
rain 1hr
in
rain 24hr
in
rain mn
in
humidity
%
barometer
mb
20260906191429 78 53 0.0 0.9 0.00 0.00 0.00 62 1019.7
20260906190420 79 49 0.0 0.9 0.00 0.00 0.00 61 1019.6
20260906185914 80 55 0.0 0.0 0.00 0.00 0.00 60 1019.2
20260906184908 80 55 0.0 0.0 0.00 0.00 0.00 59 1019.3
20260906184351 80 56 0.0 0.9 0.00 0.00 0.00 59 1019.2
20260906183843 81 56 0.0 0.9 0.00 0.00 0.00 58 1018.9
20260906183339 81 55 0.0 0.9 0.00 0.00 0.00 57 1019.0
20260906182315 82 50 0.0 0.9 0.00 0.00 0.00 56 1018.7
20260906181815 82 51 0.0 0.9 0.00 0.00 0.00 54 1018.5
20260906180750 84 47 0.0 0.9 0.00 0.00 0.00 52 1018.4
20260906180244 85 5 0.0 0.0 0.00 0.00 0.00 52 1018.4
20260906175741 85 4 0.0 0.0 0.00 0.00 0.00 50 1018.2
20260906175240 86 5 0.0 0.0 0.00 0.00 0.00 49 1018.1
20260906174238 89 5 0.0 5.2 0.00 0.00 0.00 46 1017.8
20260906173738 89 311 0.9 6.1 0.00 0.00 0.00 44 1017.8
20260906173239 89 308 1.7 6.1 0.00 0.00 0.00 44 1017.7
20260906172744 89 307 0.9 5.2 0.00 0.00 0.00 43 1018.0
20260906172238 90 310 0.9 2.6 0.00 0.00 0.00 42 1018.0
20260906171738 90 307 0.9 3.5 0.00 0.00 0.00 42 1017.8
20260906171237 90 312 0.9 3.5 0.00 0.00 0.00 41 1017.9
20260906170738 91 306 0.9 3.5 0.00 0.00 0.00 40 1017.7
20260906170238 91 313 1.7 5.2 0.00 0.00 0.00 40 1018.0
20260906165739 91 321 2.6 5.2 0.00 0.00 0.00 39 1017.8
20260906165238 92 308 1.7 5.2 0.00 0.00 0.00 38 1017.8
20260906164239 92 311 1.7 5.2 0.00 0.00 0.00 37 1017.9
20260906163736 92 304 3.5 3.5 0.00 0.00 0.00 36 1017.9
20260906163239 92 320 0.9 2.6 0.00 0.00 0.00 36 1017.5
20260906162226 93 308 1.7 3.5 0.00 0.00 0.00 35 1017.7
20260906161726 93 310 2.6 3.5 0.00 0.00 0.00 34 1017.6
20260906160726 94 302 0.0 3.5 0.00 0.00 0.00 34 1017.9
20260906160223 94 306 0.9 5.2 0.00 0.00 0.00 33 1017.5
20260906155727 95 332 1.7 5.2 0.00 0.00 0.00 31 1017.5
20260906155229 95 325 0.0 2.6 0.00 0.00 0.00 29 1017.7
20260906154724 96 310 0.0 2.6 0.00 0.00 0.00 29 1017.6
20260906154224 96 140 0.0 0.9 0.00 0.00 0.00 28 1017.5
20260906153732 96 131 0.0 2.6 0.00 0.00 0.00 28 1017.6
20260906153220 96 124 0.0 2.6 0.00 0.00 0.00 29 1017.5
20260906152714 96 115 0.0 1.7 0.00 0.00 0.00 28 1017.6
20260906152212 96 348 0.0 0.9 0.00 0.00 0.00 30 1017.7
20260906151709 95 9 0.0 1.7 0.00 0.00 0.00 31 1017.7
20260906151201 95 318 0.0 2.6 0.00 0.00 0.00 32 1017.7
20260906150703 96 326 1.7 2.6 0.00 0.00 0.00 31 1017.5
20260906150153 96 211 0.0 1.7 0.00 0.00 0.00 31 1017.8
20260906145648 96 188 0.0 1.7 0.00 0.00 0.00 31 1017.9
20260906145150 96 352 0.0 1.7 0.00 0.00 0.00 31 1017.8
20260906144145 96 324 0.0 0.9 0.00 0.00 0.00 32 1017.8
20260906143644 95 311 0.0 0.9 0.00 0.00 0.00 32 1017.8
20260906143142 95 332 0.0 2.6 0.00 0.00 0.00 34 1017.8
20260906142141 95 313 0.0 5.2 0.00 0.00 0.00 33 1018.0
20260906141653 95 322 0.0 5.2 0.00 0.00 0.00 33 1018.0
20260906141133 95 307 0.0 2.6 0.00 0.00 0.00 33 1017.9
20260906140627 96 333 0.9 1.7 0.00 0.00 0.00 31 1018.0
20260906140129 97 121 0.0 2.6 0.00 0.00 0.00 33 1017.9
20260906135626 97 296 0.0 2.6 0.00 0.00 0.00 31 1018.2
20260906135130 98 126 0.0 0.9 0.00 0.00 0.00 31 1018.1
20260906134128 98 148 0.0 1.7 0.00 0.00 0.00 30 1018.1
20260906133626 99 122 0.0 1.7 0.00 0.00 0.00 30 1018.2
20260906133135 98 1 0.0 0.9 0.00 0.00 0.00 30 1018.2
20260906132627 98 0 0.0 2.6 0.00 0.00 0.00 32 1018.3
20260906132124 97 317 0.0 3.5 0.00 0.00 0.00 31 1018.1
20260906131627 99 326 2.6 3.5 0.00 0.00 0.00 30 1018.2
20260906131124 100 68 0.0 1.7 0.00 0.00 0.00 30 1018.5
20260906130626 99 126 0.0 1.7 0.00 0.00 0.00 30 1018.4
20260906130126 99 159 0.0 2.6 0.00 0.00 0.00 30 1018.6
20260906125624 99 237 0.0 2.6 0.00 0.00 0.00 30 1018.4
20260906125124 99 162 0.0 0.9 0.00 0.00 0.00 29 1018.4
20260906124627 99 124 0.0 0.9 0.00 0.00 0.00 30 1018.4
20260906124125 98 113 0.0 0.9 0.00 0.00 0.00 31 1018.5
20260906123624 98 123 0.0 0.9 0.00 0.00 0.00 31 1018.4
20260906122626 97 315 0.0 2.6 0.00 0.00 0.00 32 1018.6
20260906122124 97 208 0.9 0.9 0.00 0.00 0.00 32 1018.5
20260906121626 97 142 0.0 0.9 0.00 0.00 0.00 34 1018.7
20260906121123 98 213 0.0 0.9 0.00 0.00 0.00 32 1018.6
20260906120627 97 165 0.0 0.9 0.00 0.00 0.00 33 1018.8
20260906120126 97 79 0.0 0.9 0.00 0.00 0.00 33 1018.6
20260906115624 97 132 0.0 0.9 0.00 0.00 0.00 34 1018.7
20260906115126 97 133 0.0 1.7 0.00 0.00 0.00 34 1018.6
20260906114127 97 181 0.0 0.9 0.00 0.00 0.00 31 1018.7
20260906113627 96 148 0.0 1.7 0.00 0.00 0.00 33 1018.9
20260906112624 95 354 0.0 0.9 0.00 0.00 0.00 33 1018.9
20260906112123 94 356 0.0 2.6 0.00 0.00 0.00 35 1019.0
20260906111628 95 312 0.9 2.6 0.00 0.00 0.00 35 1019.0
20260906110109 92 314 0.9 2.6 0.00 0.00 0.00 38 1019.0
20260906105609 93 316 0.0 2.6 0.00 0.00 0.00 38 1019.1
20260906105100 94 100 0.0 0.9 0.00 0.00 0.00 35 1019.2
20260906104555 92 63 0.0 0.9 0.00 0.00 0.00 37 1019.6
20260906104050 93 3 0.0 0.9 0.00 0.00 0.00 38 1019.4
20260906103547 92 4 0.0 0.9 0.00 0.00 0.00 39 1019.4
20260906103042 91 323 0.0 1.7 0.00 0.00 0.00 38 1019.5
20260906102040 90 313 1.7 3.5 0.00 0.00 0.00 39 1019.6
20260906101535 91 331 0.0 1.7 0.00 0.00 0.00 40 1019.5
20260906101029 91 316 0.0 1.7 0.00 0.00 0.00 41 1019.8
20260906100527 91 317 0.9 1.7 0.00 0.00 0.00 39 1019.6
20260906100027 91 138 0.0 0.9 0.00 0.00 0.00 40 1019.5
20260906095526 91 138 0.0 0.9 0.00 0.00 0.00 37 1019.6
20260906095024 90 140 0.0 0.9 0.00 0.00 0.00 40 1019.9
20260906094527 91 285 0.0 0.9 0.00 0.00 0.00 39 1019.8
20260906094018 89 311 0.0 0.9 0.00 0.00 0.00 45 1020.1
20260906093517 89 311 0.0 1.7 0.00 0.00 0.00 47 1019.8
20260906093014 88 311 1.7 1.7 0.00 0.00 0.00 45 1019.8
20260906092508 88 324 0.0 1.7 0.00 0.00 0.00 45 1020.0
20260906092002 88 92 0.0 0.9 0.00 0.00 0.00 46 1019.7
20260906090955 86 121 0.0 0.9 0.00 0.00 0.00 48 1019.8
20260906090450 86 121 0.0 0.9 0.00 0.00 0.00 48 1020.0
20260906085948 86 122 0.0 0.0 0.00 0.00 0.00 52 1020.2
20260906084939 84 122 0.0 0.9 0.00 0.00 0.00 51 1019.9
20260906083942 82 122 0.0 1.7 0.00 0.00 0.00 57 1020.2
20260906083439 82 131 0.0 1.7 0.00 0.00 0.00 57 1020.0
20260906082436 82 308 0.0 0.9 0.00 0.00 0.00 55 1020.0
20260906081943 80 308 0.0 1.7 0.00 0.00 0.00 56 1020.1
20260906080438 80 325 0.9 1.7 0.00 0.00 0.00 58 1020.2
20260906075944 79 314 0.9 1.7 0.00 0.00 0.00 58 1020.1
20260906075436 78 308 0.0 1.7 0.00 0.00 0.00 63 1020.1
20260906074937 77 303 0.9 0.9 0.00 0.00 0.00 62 1020.2
20260906073438 76 303 0.0 0.9 0.00 0.00 0.00 62 1019.9
20260906072938 76 303 0.0 0.0 0.00 0.00 0.00 65 1019.8
20260906072437 76 303 0.0 0.0 0.00 0.00 0.00 63 1019.9
20260906071936 75 303 0.0 0.0 0.00 0.00 0.00 66 1020.1
20260906071438 73 303 0.0 0.0 0.00 0.00 0.00 69 1020.0
20260906070439 72 303 0.0 0.0 0.00 0.00 0.00 71 1020.0
20260906065938 71 303 0.0 0.0 0.00 0.00 0.00 76 1019.8
20260906064939 69 303 0.0 0.0 0.00 0.00 0.00 77 1019.9
20260906063923 69 303 0.0 0.0 0.00 0.00 0.00 77 1019.6
20260906063426 69 303 0.0 0.0 0.00 0.00 0.00 78 1019.7
20260906062424 69 303 0.0 0.0 0.00 0.00 0.00 77 1019.9
20260906061924 69 303 0.0 0.0 0.00 0.00 0.00 76 1019.5
20260906060930 68 303 0.0 0.0 0.00 0.00 0.00 76 1019.7
20260906060423 66 303 0.0 0.0 0.00 0.00 0.00 79 1019.6
20260906055924 65 303 0.0 0.0 0.00 0.00 0.00 80 1019.6
20260906055423 65 303 0.0 0.0 0.00 0.00 0.00 81 1019.6
20260906054923 64 303 0.0 0.0 0.00 0.00 0.00 82 1019.7
20260906054422 63 303 0.0 0.0 0.00 0.00 0.00 88 1019.5
20260906053924 62 303 0.0 0.0 0.00 0.00 0.00 89 1019.4
20260906053422 61 303 0.0 0.0 0.00 0.00 0.00 89 1019.5
20260906052924 61 303 0.0 0.0 0.00 0.00 0.00 89 1019.4
20260906052423 61 303 0.0 0.0 0.00 0.00 0.00 88 1019.5
20260906051923 61 303 0.0 0.0 0.00 0.00 0.00 88 1019.5
20260906051423 61 303 0.0 0.0 0.00 0.00 0.00 88 1019.5
20260906050427 61 303 0.0 0.0 0.00 0.00 0.00 89 1019.4
20260906045926 61 303 0.0 0.0 0.00 0.00 0.00 88 1019.4
20260906045427 61 303 0.0 0.0 0.00 0.00 0.00 88 1019.4
20260906043927 61 303 0.0 0.0 0.00 0.00 0.00 88 1019.2
20260906043425 61 303 0.0 0.0 0.00 0.00 0.00 88 1019.4
20260906042924 61 303 0.0 0.0 0.00 0.00 0.00 88 1019.4
20260906042430 61 303 0.0 0.0 0.00 0.00 0.00 88 1019.3
20260906041411 61 303 0.0 0.9 0.00 0.00 0.00 89 1019.2
20260906040912 61 303 0.0 0.9 0.00 0.00 0.00 89 1019.1
20260906035859 61 303 0.0 0.0 0.00 0.00 0.00 89 1019.2
20260906035347 61 303 0.0 0.0 0.00 0.00 0.00 89 1019.0
20260906034838 61 303 0.0 0.0 0.00 0.00 0.00 89 1019.0
20260906034336 61 303 0.0 0.0 0.00 0.00 0.00 89 1019.0
20260906032838 62 303 0.0 0.0 0.00 0.00 0.00 89 1019.0
20260906032340 62 303 0.0 0.0 0.00 0.00 0.00 89 1018.9
20260906031338 62 303 0.0 0.0 0.00 0.00 0.00 89 1019.1
20260906030340 62 303 0.0 0.0 0.00 0.00 0.00 88 1019.0
20260906025835 62 303 0.0 0.0 0.00 0.00 0.00 88 1019.0
20260906025323 62 303 0.0 0.0 0.00 0.00 0.00 88 1018.9
20260906024811 62 303 0.0 0.0 0.00 0.00 0.00 88 1018.9
20260906024311 62 303 0.0 0.0 0.00 0.00 0.00 88 1018.8
20260906023312 63 303 0.0 0.0 0.00 0.00 0.00 87 1018.8
20260906021729 63 303 0.0 0.9 0.00 0.00 0.00 87 1018.7
20260906020701 63 303 0.0 0.0 0.00 0.00 0.00 88 1018.7
20260906015640 63 303 0.0 0.0 0.00 0.00 0.00 87 1018.8
20260906014641 63 303 0.0 0.0 0.00 0.00 0.00 86 1018.9
20260906014123 63 303 0.0 0.0 0.00 0.00 0.00 86 1018.8
20260906013632 64 303 0.0 0.0 0.00 0.00 0.00 86 1018.4
20260906013128 64 303 0.0 0.0 0.00 0.00 0.00 85 1018.5
20260906012623 64 303 0.0 0.0 0.00 0.00 0.00 85 1018.8
20260906012123 64 303 0.0 0.0 0.00 0.00 0.00 85 1018.7
20260906011126 64 303 0.0 0.0 0.00 0.00 0.00 85 1018.7
20260906010625 64 303 0.0 0.0 0.00 0.00 0.00 85 1018.5
20260906010142 64 303 0.0 0.0 0.00 0.00 0.00 84 1018.7
20260906005627 64 303 0.0 0.9 0.00 0.00 0.00 84 1018.6
20260906005124 64 304 0.0 0.9 0.00 0.00 0.00 83 1018.5
20260906004624 64 304 0.0 0.0 0.00 0.00 0.00 83 1018.8
20260906004126 65 304 0.0 0.9 0.00 0.00 0.00 83 1018.7
20260906003129 65 304 0.0 0.0 0.00 0.00 0.00 83 1018.6
20260906002625 65 304 0.0 0.0 0.00 0.00 0.00 83 1018.7
20260906002123 65 304 0.0 0.0 0.00 0.00 0.00 83 1018.6
20260906001131 65 304 0.0 0.0 0.00 0.00 0.00 83 1018.5
20260906000627 65 304 0.0 0.0 0.00 0.00 0.00 83 1018.5
20260906000125 65 304 0.0 0.0 0.00 0.00 0.00 83 1018.5
20260905235622 65 304 0.0 0.0 0.00 0.00 0.00 83 1018.6
20260905235133 65 304 0.0 0.0 0.00 0.00 0.00 83 1018.6
20260905234627 66 304 0.0 0.0 0.00 0.00 0.00 82 1018.5
20260905234124 66 304 0.0 0.0 0.00 0.00 0.00 83 1018.7
20260905233622 66 304 0.0 0.0 0.00 0.00 0.00 82 1018.6
20260905233126 66 304 0.0 0.0 0.00 0.00 0.00 82 1018.7
20260905232625 66 304 0.0 0.0 0.00 0.00 0.00 81 1018.4
20260905232123 66 304 0.0 0.0 0.00 0.00 0.00 81 1018.4
20260905230128 67 304 0.0 0.0 0.00 0.00 0.00 79 1018.5
20260905225624 67 304 0.0 0.0 0.00 0.00 0.00 79 1018.9
20260905224628 67 304 0.0 0.0 0.00 0.00 0.00 78 1018.4
20260905224127 68 303 0.0 0.0 0.00 0.00 0.00 78 1018.6
20260905223622 68 304 0.0 0.0 0.00 0.00 0.00 78 1018.5
20260905223125 68 304 0.0 0.0 0.00 0.00 0.00 78 1018.5
20260905222628 68 303 0.0 0.0 0.00 0.00 0.00 78 1018.3
20260905222126 68 303 0.0 0.0 0.00 0.00 0.00 78 1018.3
20260905221629 68 303 0.0 0.0 0.00 0.00 0.00 78 1018.3
20260905220129 69 304 0.0 0.0 0.00 0.00 0.00 77 1018.3
20260905215627 69 304 0.0 1.7 0.00 0.00 0.00 76 1018.2
20260905215126 69 304 0.0 1.7 0.00 0.00 0.00 76 1018.1
20260905214628 69 304 0.0 0.9 0.00 0.00 0.00 76 1018.1
20260905214126 69 304 0.0 0.0 0.00 0.00 0.00 76 1018.2
20260905213624 70 304 0.0 0.0 0.00 0.00 0.00 75 1018.3
20260905213126 70 304 0.0 0.9 0.00 0.00 0.00 74 1017.9
20260905211627 71 304 0.0 0.9 0.00 0.00 0.00 74 1017.7
20260905211125 71 304 0.0 0.9 0.00 0.00 0.00 73 1018.0
20260905210623 71 304 0.0 0.0 0.00 0.00 0.00 72 1017.8
20260905205624 72 304 0.0 0.9 0.00 0.00 0.00 72 1017.9
20260905205123 72 304 0.0 0.9 0.00 0.00 0.00 71 1017.9
20260905204624 73 304 0.0 0.0 0.00 0.00 0.00 70 1018.0
20260905204133 73 304 0.0 0.0 0.00 0.00 0.00 70 1017.9
20260905203625 73 304 0.0 0.0 0.00 0.00 0.00 69 1017.8
20260905203126 73 304 0.0 0.0 0.00 0.00 0.00 69 1018.0
20260905202625 73 304 0.0 0.0 0.00 0.00 0.00 68 1017.8
20260905202121 73 304 0.0 0.0 0.00 0.00 0.00 68 1017.6
20260905201624 73 304 0.0 0.0 0.00 0.00 0.00 68 1017.7
20260905201109 74 304 0.0 0.0 0.00 0.00 0.00 68 1017.8
20260905200609 74 304 0.0 0.0 0.00 0.00 0.00 68 1017.9
20260905200059 74 304 0.0 0.0 0.00 0.00 0.00 68 1017.8
20260905195547 74 304 0.0 0.0 0.00 0.00 0.00 68 1017.8
20260905194553 74 304 0.0 0.0 0.00 0.00 0.00 67 1017.7
20260905194043 75 304 0.0 0.0 0.00 0.00 0.00 67 1017.8
20260905193040 75 304 0.0 0.0 0.00 0.00 0.00 66 1017.5
20260905192536 75 304 0.0 0.0 0.00 0.00 0.00 66 1017.6
20260905192039 75 305 0.0 0.0 0.00 0.00 0.00 66 1017.3